CAPE
1 1 1 0 0 0 0 0 0 0 0 0 0 0 0 0 0 0 0 24 1152 2427 2171 1120 573 355 456 465 315 82 94 121 87 5 59 26 13 0 0 6 0 40 20 80 39
1 1 0 0 0 1 1 0 0 0 0 0 0 0 0 0 0 0 0 597 2382 2332 1019 560 288 458 486 482 227 30 13 38 114 30 96 7 0 0 2 2 137 17 83 33 22
0 0 1 0 0 0 1 1 0 0 0 0 0 0 0 0 0 0 734 1768 2137 1741 176 132 26 98 61 44 219 62 90 46 157 101 82 10 4 0 0 36 23 147 204 23 43
1 1 0 0 0 0 0 0 0 0 0 0 0 0 0 0 0 0 1751 2286 1816 394 62 0 0 140 92 27 303 81 51 142 288 245 142 38 26 11 0 0 6 31 220 306 359
1 2 1 1 1 2 2 1 1 1 1 0 0 0 0 0 0 4 2379 2032 220 204 0 0 0 141 154 261 253 154 133 131 316 249 236 82 97 37 181 8 3 5 133 282 209
3 5 4 5 5 4 3 3 3 0 0 0 0 0 0 0 0 0 346 654 324 21 0 0 0 119 357 378 433 320 277 264 257 312 269 212 173 54 218 92 12 18 75 212 286
6 5 4 5 3 3 4 3 0 0 0 0 0 0 0 0 0 32 219 169 160 0 0 0 0 0 335 453 479 419 428 356 364 333 339 294 318 235 321 268 67 97 189 397 495
5 5 5 5 4 4 3 2 0 0 0 0 0 0 0 0 0 0 0 67 0 0 0 0 0 3 408 417 439 606 592 754 435 401 283 349 674 380 381 467 316 232 273 375 243
4 4 5 4 4 2 2 0 0 0 0 0 0 0 0 0 0 0 0 0 0 0 0 0 0 94 264 504 527 522 512 615 685 418 452 438 701 520 448 549 594 497 361 327 233
3 2 4 3 3 1 0 0 0 0 0 0 0 0 0 0 0 0 0 0 0 0 0 0 0 31 270 342 585 502 469 490 578 631 531 616 687 650 554 590 771 767 367 369 227
3 2 3 2 1 0 0 0 0 0 0 0 0 0 0 0 0 0 0 0 0 0 0 0 0 12 77 142 0 196 199 337 366 417 601 726 729 812 653 595 646 742 562 215 241
3 2 2 1 0 0 0 0 0 0 0 0 0 0 0 0 0 0 0 0 0 0 0 0 0 0 0 0 0 12 46 138 204 445 618 682 894 948 806 753 654 614 562 138 258
2 2 1 2 0 0 0 0 0 0 0 0 0 0 0 0 0 0 0 0 0 0 0 0 0 0 0 0 7 32 55 2 86 639 674 692 796 934 1041 857 800 670 502 149 295
1 1 1 2 0 0 0 0 0 0 0 0 0 0 0 0 0 0 0 0 0 0 0 0 0 0 0 0 0 76 0 0 15 294 589 490 576 1064 1107 1098 940 828 670 419 164
1 1 3 0 0 0 0 0 0 0 0 0 0 0 0 0 0 0 0 0 0 0 0 0 0 0 0 0 0 1 0 1 2 1 131 537 579 842 880 1139 1125 1019 803 604 294
0 0 3 0 0 0 0 0 0 0 0 0 0 0 0 0 0 0 0 0 0 0 0 0 0 0 0 0 0 0 0 21 34 2 27 148 400 447 869 877 974 1067 1006 771 561
0 0 0 0 0 0 0 0 0 0 0 0 0 0 0 0 0 0 0 0 0 0 0 0 0 0 0 0 0 0 0 159 144 161 114 235 388 474 423 457 402 486 971 973 767
0 0 0 0 0 0 0 0 0 0 0 0 0 0 0 0 0 0 0 0 0 0 0 0 0 0 0 0 0 0 0 144 129 109 124 219 198 408 287 130 116 200 554 923 938
0 0 0 0 0 0 0 0 0 0 0 0 0 0 0 0 0 0 0 0 0 0 0 0 0 0 0 0 0 0 0 36 70 32 0 0 133 56 47 90 357 465 510 714 1017
0 0 0 0 0 0 0 0 0 0 0 0 0 0 0 0 0 0 0 0 0 0 0 0 0 0 0 0 0 0 0 0 11 73 35 0 20 0 0 0 0 51 611 749 953
0 0 0 0 0 0 0 0 0 0 0 0 0 0 0 0 0 0 0 0 0 0 0 0 0 0 0 0 0 0 0 0 14 101 83 31 16 0 0 0 0 1 575 900 933
0 0 0 0 0 0 0 0 0 0 0 0 0 0 0 0 0 0 0 0 0 0 0 0 0 0 0 0 0 0 0 0 0 5 0 1 0 0 0 0 0 0 20 996 1032
0 0 0 0 0 0 0 0 0 0 0 0 0 0 0 0 0 0 0 0 0 0 0 0 0 0 0 0 0 0 0 0 0 0 13 18 0 0 0 0 0 0 8 1199 1190
0 0 0 0 0 0 0 0 0 0 0 0 0 0 0 0 0 0 0 23 22 0 0 0 0 0 0 0 0 0 0 0 0 0 0 0 0 0 0 0 0 4 125 1202 1321
0 0 0 0 0 0 0 0 0 0 0 0 0 0 0 0 0 0 0 213 143 17 0 0 0 0 0 0 0 0 0 0 0 0 0 14 0 0 0 0 0 0 265 1112 1422
0 0 0 0 0 0 0 0 0 0 0 0 0 0 0 0 0 0 0 50 185 20 0 0 0 0 0 0 0 0 0 0 0 0 0 0 0 0 2 0 0 0 198 863 1487
0 0 0 0 0 0 0 0 0 0 0 0 0 0 0 0 0 0 0 0 165 323 87 0 0 0 23 0 0 1 0 0 0 0 0 0 0 46 105 3 23 157 465 665 1420
CIN
-0 -0 -0 -0 -0 -0 -0 -0 -0 -0 -0 -0 -0 -0 -0 -0 -0 -0 -0 -41 -232 -435 -366 -167 -178 -125 -150 -26 -39 -39 -0 -13 -27 -121 -84 -165 -178 -0 -0 -35 -0 -46 -49 -74 -190
-0 -0 -0 -0 -0 -0 -0 -0 -0 -0 -0 -0 -0 -0 -0 -0 -0 -0 -0 -664 -494 -467 -110 -84 -57 -68 -9 -5 -11 -1 -4 -33 -33 -97 -66 -181 -0 -0 -71 -22 -49 -72 -79 -143 -177
-0 -0 -0 -0 -0 -0 -0 -0 -0 -0 -0 -0 -0 -0 -0 -0 -0 -0 -658 -570 -500 -448 -119 -87 -67 -31 -10 -14 -1 -2 -1 -17 -4 -27 -48 -153 -132 -0 -30 -45 -43 -47 -70 -154 -187
-0 -0 -0 -0 -0 -0 -0 -0 -0 -0 -0 -0 -0 -0 -0 -0 -0 -0 -569 -504 -516 -244 -172 -0 -0 -6 -1 -31 -2 -5 -8 -3 -5 -12 -13 -61 -87 -104 -3 -0 -94 -102 -84 -81 -95
-0 -0 -0 -0 -0 -0 -0 -0 -0 -0 -0 -0 -0 -0 -0 -0 -0 -262 -477 -498 -408 -207 -0 -0 -0 -4 -0 -0 -0 -0 -1 -5 -9 -21 -11 -30 -39 -65 -34 -127 -167 -178 -117 -93 -102
-0 -0 -0 -0 -0 -0 -0 -0 -0 -0 -0 -0 -0 -0 -0 -0 -0 -0 -380 -360 -203 -160 -0 -0 -0 -34 -3 -5 -1 -6 -2 -13 -18 -20 -24 -20 -22 -65 -54 -90 -141 -139 -128 -108 -100
-0 -0 -0 -0 -0 -0 -0 -0 -0 -0 -0 -0 -0 -0 -0 -0 -0 -389 -408 -315 -274 -0 -0 -0 -0 -0 -19 -8 -22 -11 -5 -13 -18 -32 -29 -33 -39 -35 -59 -91 -139 -114 -102 -58 -55
-0 -0 -0 -0 -0 -0 -0 -0 -0 -0 -0 -0 -0 -0 -0 -0 -0 -0 -0 -338 -0 -0 -0 -0 -0 -19 -24 -40 -26 -8 -2 -0 -29 -40 -57 -42 -4 -37 -85 -78 -100 -111 -104 -82 -102
-0 -0 -0 -0 -0 -0 -0 -0 -0 -0 -0 -0 -0 -0 -0 -0 -0 -0 -0 -0 -0 -0 -0 -0 -0 -85 -58 -5 -2 -12 -0 -0 -13 -41 -51 -35 -3 -38 -99 -80 -83 -102 -103 -101 -110
-0 -0 -0 -0 -0 -0 -0 -0 -0 -0 -0 -0 -0 -0 -0 -0 -0 -0 -0 -0 -0 -0 -0 -0 -0 -82 -12 -0 -0 -0 -0 -7 -0 -15 -31 -24 -13 -49 -79 -77 -79 -87 -135 -123 -126
-0 -0 -0 -0 -0 -0 -0 -0 -0 -0 -0 -0 -0 -0 -0 -0 -0 -0 -0 -0 -0 -0 -0 -0 -0 -50 -34 -17 -0 -17 -15 -6 -26 -32 -22 -12 -4 -43 -74 -94 -84 -80 -120 -141 -131
-0 -0 -0 -0 -0 -0 -0 -0 -0 -0 -0 -0 -0 -0 -0 -0 -0 -0 -0 -0 -0 -0 -0 -0 -0 -0 -0 -0 -0 -104 -26 -6 -24 -53 -35 -11 -9 -20 -86 -87 -79 -86 -103 -154 -144
-0 -0 -0 -0 -0 -0 -0 -0 -0 -0 -0 -0 -0 -0 -0 -0 -0 -0 -0 -0 -0 -0 -0 -0 -0 -0 -0 -0 -67 -49 -22 -51 -52 -24 -39 -41 -15 -23 -63 -108 -97 -110 -101 -134 -129
-0 -0 -0 -0 -0 -0 -0 -0 -0 -0 -0 -0 -0 -0 -0 -0 -0 -0 -0 -0 -0 -0 -0 -0 -0 -0 -0 -0 -0 -7 -19 -0 -82 -28 -0 -39 -0 -17 -36 -96 -123 -101 -105 -114 -172
-0 -0 -0 -0 -0 -0 -0 -0 -0 -0 -0 -0 -0 -0 -0 -0 -0 -0 -0 -0 -0 -0 -0 -0 -0 -0 -0 -0 -0 -1 -0 -102 -108 -90 -36 -7 -4 -1 -42 -52 -83 -97 -97 -91 -135
-0 -0 -0 -0 -0 -0 -0 -0 -0 -0 -0 -0 -0 -0 -0 -0 -0 -0 -0 -0 -0 -0 -0 -0 -0 -0 -0 -0 -0 -0 -0 -130 -119 -35 -34 -4 -10 -0 -9 -15 -26 -55 -91 -102 -98
-0 -0 -0 -0 -0 -0 -0 -0 -0 -0 -0 -0 -0 -0 -0 -0 -0 -0 -0 -0 -0 -0 -0 -0 -0 -0 -0 -0 -0 -0 -6 -7 -9 -7 -2 -17 -8 -0 -3 -17 -37 -30 -67 -99 -99
-0 -0 -0 -0 -0 -0 -0 -0 -0 -0 -0 -0 -0 -0 -0 -0 -0 -0 -0 -0 -0 -0 -0 -0 -0 -0 -0 -0 -0 -0 -0 -1 -2 -0 -0 -27 -9 -0 -26 -54 -79 -93 -51 -92 -94
-0 -0 -0 -0 -0 -0 -0 -0 -0 -0 -0 -0 -0 -0 -0 -0 -0 -0 -0 -0 -0 -0 -0 -0 -0 -0 -0 -0 -0 -0 -0 -40 -6 -24 -0 -0 -19 -14 -14 -32 -37 -54 -73 -75 -89
-0 -0 -0 -0 -0 -0 -0 -0 -0 -0 -0 -0 -0 -0 -0 -0 -0 -0 -0 -0 -0 -0 -0 -0 -0 -0 -0 -0 -0 -0 -0 -0 -28 -18 -9 -0 -53 -0 -0 -0 -0 -21 -74 -68 -89
-0 -0 -0 -0 -0 -0 -0 -0 -0 -0 -0 -0 -0 -0 -0 -0 -0 -0 -0 -0 -0 -0 -0 -0 -0 -0 -0 -0 -0 -0 -0 -0 -2 -0 -1 -3 -10 -0 -0 -0 -0 -1 -56 -64 -89
-0 -0 -0 -0 -0 -0 -0 -0 -0 -0 -0 -0 -0 -0 -0 -0 -0 -0 -0 -0 -0 -0 -0 -0 -0 -0 -0 -0 -0 -0 -0 -0 -1 -11 -3 -1 -0 -0 -0 -0 -0 -0 -27 -65 -94
-0 -0 -0 -0 -0 -0 -0 -0 -0 -0 -0 -0 -0 -0 -0 -0 -0 -0 -0 -0 -0 -0 -0 -0 -0 -0 -0 -0 -0 -0 -0 -0 -0 -0 -0 -0 -0 -0 -0 -0 -0 -0 -41 -83 -89
-0 -0 -0 -0 -0 -0 -0 -0 -0 -0 -0 -0 -0 -0 -0 -0 -0 -0 -0 -43 -39 -0 -0 -0 -0 -0 -0 -0 -0 -0 -0 -0 -0 -0 -0 -0 -0 -0 -0 -0 -0 -2 -89 -64 -108
-0 -0 -0 -0 -0 -0 -0 -0 -0 -0 -0 -0 -0 -0 -0 -0 -0 -0 -0 -17 -51 -20 -0 -0 -0 -0 -0 -0 -0 -0 -0 -0 -0 -0 -0 -0 -0 -0 -0 -0 -0 -0 -89 -72 -125
-0 -0 -0 -0 -0 -0 -0 -0 -0 -0 -0 -0 -0 -0 -0 -0 -0 -0 -0 -7 -0 -14 -0 -0 -0 -0 -0 -0 -0 -0 -0 -0 -0 -0 -0 -0 -0 -0 -19 -0 -0 -2 -100 -98 -113
-0 -0 -0 -0 -0 -0 -0 -0 -0 -0 -0 -0 -0 -0 -0 -0 -0 -0 -0 -0 -20 -4 -3 -0 -0 -0 -0 -0 -0 -0 -0 -0 -0 -0 -0 -0 -0 -9 -10 -12 -67 -72 -116 -106 -111
Wind_Speed
21 21 20 21 21 22 21 21 21 21 19 18 19 16 15 16 16 7 4 5 7 17 10 11 6 6 4 3 1 3 5 9 10 12 11 11 16 8 7 14 7 4 11 20 20
21 21 21 21 22 21 21 20 20 20 21 17 18 18 14 15 8 9 5 8 20 15 14 10 6 7 4 3 3 1 10 12 7 14 14 14 14 12 14 13 10 12 15 21 20
22 22 22 22 22 22 22 21 21 21 20 19 17 18 14 16 9 5 6 10 16 17 6 3 2 4 4 2 3 6 12 11 10 10 15 16 14 12 13 12 12 17 21 22 20
22 23 23 24 24 24 22 22 21 21 20 19 16 17 14 7 5 6 5 11 11 11 8 4 4 5 2 6 3 9 7 10 10 13 13 13 14 9 9 3 13 18 22 22 20
22 23 23 23 25 24 23 23 22 21 19 18 15 14 8 7 2 5 5 10 15 9 8 2 2 2 3 6 5 10 10 8 11 13 13 12 11 12 5 5 11 17 19 19 17
22 22 23 23 23 24 23 24 23 22 17 15 12 10 7 9 3 2 7 16 12 10 6 5 3 4 6 5 4 5 10 11 11 10 11 11 10 11 8 11 14 18 19 17 17
22 23 24 24 24 25 24 24 24 21 15 11 8 6 7 5 3 5 9 13 9 9 4 2 2 5 3 9 5 6 11 10 9 10 9 8 9 7 14 14 16 18 17 16 16
23 23 24 25 25 25 25 23 22 18 8 2 6 6 6 5 3 6 7 8 7 5 4 2 4 3 2 10 7 4 5 7 9 11 7 11 9 11 16 17 19 18 16 16 16
23 24 24 25 25 25 25 24 18 8 1 5 7 7 3 6 8 7 10 8 10 6 5 2 5 2 6 11 8 7 3 3 9 12 7 13 8 13 17 17 17 17 17 17 16
23 24 25 25 25 25 26 19 3 8 7 6 4 7 6 3 6 6 8 6 7 10 8 9 8 9 7 10 3 3 7 4 5 11 11 12 6 10 17 18 19 18 18 18 17
25 25 25 25 25 23 16 5 7 8 8 8 5 4 3 2 4 8 9 11 9 12 11 10 10 12 10 2 2 1 4 4 1 3 10 11 10 13 17 17 18 19 19 20 20
25 25 26 26 26 24 9 3 6 6 9 8 12 12 8 4 6 11 10 13 11 14 7 9 14 11 4 4 6 6 5 4 4 2 8 6 8 12 18 19 19 19 19 20 21
25 25 26 26 27 11 5 6 4 3 8 5 6 7 7 10 7 15 15 14 12 15 13 17 9 1 8 9 10 11 8 4 6 3 6 6 13 12 16 16 17 18 18 20 22
25 25 24 28 9 5 2 3 8 5 7 9 7 5 8 7 8 6 12 12 8 15 14 11 6 5 12 15 12 15 6 2 3 8 2 3 1 11 14 18 19 19 19 19 22
26 25 21 9 10 4 6 7 3 6 7 5 8 7 7 11 12 8 9 8 10 10 8 12 12 13 13 15 11 8 1 4 4 9 6 11 8 9 7 13 19 21 22 20 21
28 27 18 5 5 6 8 8 6 9 2 7 6 9 14 13 6 9 12 6 3 6 10 15 2 9 15 4 7 2 8 8 7 9 10 4 6 10 9 10 11 20 23 23 21
30 25 6 2 4 6 7 5 8 8 4 8 6 9 16 13 11 10 14 16 12 12 13 13 14 6 7 12 9 12 13 10 10 9 7 7 6 6 5 5 3 6 20 23 22
32 18 5 5 6 8 5 7 8 2 3 3 2 6 10 12 13 11 10 16 18 14 7 12 15 18 12 16 12 14 17 12 8 10 5 5 6 5 5 2 4 5 9 21 25
30 2 3 5 5 4 8 9 3 1 2 2 5 11 11 12 7 12 14 12 16 17 11 9 15 6 13 12 12 11 12 14 17 6 8 12 5 11 5 4 6 1 10 18 25
9 5 4 4 2 7 8 11 3 3 5 4 7 7 14 16 13 11 11 9 11 16 17 6 5 7 13 11 8 15 9 12 11 16 12 9 8 9 8 12 12 5 8 17 23
6 6 5 6 5 7 10 8 5 2 5 5 3 5 9 10 16 14 9 6 12 14 18 15 10 8 7 16 19 11 14 10 13 13 13 12 8 4 7 8 8 6 4 14 22
6 5 4 5 7 3 8 4 1 6 4 6 6 7 9 7 12 12 10 5 7 7 12 19 8 10 12 5 12 14 21 21 14 16 11 14 12 11 9 9 11 5 3 13 20
9 5 1 5 6 7 3 7 6 6 6 4 6 5 2 7 8 10 7 6 8 9 6 11 12 9 9 12 8 14 13 13 17 18 17 11 10 8 6 7 10 4 3 14 18
6 4 3 1 1 7 6 8 7 4 9 9 10 9 8 11 9 6 10 8 6 8 5 7 15 12 8 15 16 19 16 14 14 13 13 16 12 15 15 11 10 6 6 17 17
1 5 4 3 3 8 5 7 9 6 5 5 7 13 6 9 12 11 9 10 7 6 7 11 13 12 9 2 9 16 20 17 17 17 17 13 14 8 15 10 11 5 9 17 19
6 6 4 8 7 8 5 5 9 10 6 6 10 4 10 12 7 6 9 10 10 10 10 12 6 6 11 9 9 12 10 12 14 14 11 16 14 15 8 6 7 8 10 17 21
4 1 6 3 6 6 3 5 5 5 7 7 8 11 11 5 11 14 14 15 12 8 10 12 7 8 14 10 10 11 11 13 12 13 14 13 15 5 9 5 3 4 10 14 20
Wind_Direction
350 347 344 340 337 334 332 331 330 327 328 328 322 323 328 321 301 211 244 77 161 170 207 153 193 182 211 175 190 231 129 103 110 115 133 130 130 135 116 137 141 114 140 136 147
347 344 342 338 335 332 329 328 327 326 324 328 321 319 325 324 276 250 21 144 146 171 177 183 162 177 178 127 156 12 80 77 105 109 137 143 141 134 150 148 138 129 113 136 154
344 342 339 336 333 331 327 326 324 323 322 321 320 313 322 310 263 94 24 162 164 191 200 256 151 204 151 169 83 37 91 112 115 119 136 139 142 150 149 171 162 150 148 156 161
342 340 336 334 331 328 326 324 321 321 319 314 314 308 316 259 241 59 331 169 179 223 214 214 212 197 215 124 92 119 85 100 116 145 140 148 141 156 177 114 162 158 159 162 170
340 336 332 331 330 325 325 322 318 318 315 308 306 306 287 230 247 57 127 157 186 209 232 251 280 202 128 108 128 92 109 112 133 149 154 141 154 140 107 153 143 151 162 170 175
338 334 330 330 329 325 325 321 318 316 312 299 291 290 259 251 68 121 151 170 199 213 211 228 11 10 102 97 32 107 100 118 142 145 147 166 142 167 124 139 149 161 171 176 179
336 333 330 329 330 325 323 320 317 313 307 285 263 251 249 291 60 140 167 181 202 221 206 160 280 276 189 123 120 140 126 134 154 150 163 165 170 209 146 154 159 171 177 180 184
334 332 330 329 328 325 322 319 315 311 310 209 206 244 269 99 149 184 174 168 198 212 263 313 219 107 291 125 147 155 215 173 166 179 156 210 116 150 163 165 167 176 181 187 188
332 331 329 328 326 324 320 316 303 311 110 169 227 262 229 141 206 180 195 169 173 192 191 234 223 114 172 202 168 209 169 228 164 198 153 211 109 150 173 178 177 181 182 190 190
332 330 328 327 325 323 319 299 299 261 216 235 256 243 191 143 129 156 186 182 178 167 166 201 204 209 202 221 153 185 214 228 250 178 213 199 226 169 180 188 184 187 185 192 194
331 329 328 326 323 323 321 219 215 183 206 282 0 320 123 96 193 192 177 192 180 201 201 199 220 216 201 68 42 190 271 258 138 139 226 232 244 171 186 199 192 190 188 192 198
331 329 327 325 321 317 280 334 48 354 293 232 254 264 264 299 198 175 192 197 203 208 203 189 225 226 62 191 242 234 259 182 136 208 234 262 243 180 187 202 201 196 188 193 191
331 329 327 324 319 289 328 77 7 273 255 173 217 244 212 203 223 170 199 204 215 223 205 230 216 106 209 202 237 234 261 25 326 157 233 274 240 205 195 206 206 212 199 193 193
330 328 329 324 291 350 199 99 320 234 263 133 181 156 182 216 207 139 208 198 210 231 220 236 215 219 219 236 231 258 116 231 225 249 282 252 347 192 194 205 207 206 208 198 195
328 327 326 321 326 248 38 324 299 225 250 123 127 114 162 208 117 159 168 199 199 198 212 204 212 221 226 241 223 281 342 255 248 255 248 187 250 106 175 204 213 211 205 205 193
330 327 325 184 217 305 309 307 231 229 196 129 127 175 173 197 155 127 178 225 9 178 225 255 108 260 243 160 258 152 215 212 230 267 255 183 255 164 164 212 206 207 205 201 197
331 327 285 284 22 335 302 223 232 252 136 150 147 183 196 179 179 185 187 196 202 203 207 215 223 205 221 208 204 213 233 236 217 209 249 106 232 300 159 189 256 212 198 200 197
329 320 156 292 305 303 243 222 251 53 237 110 183 180 194 189 207 195 203 215 216 228 276 204 206 209 186 232 218 213 239 245 233 249 233 129 241 153 84 299 302 264 201 191 193
313 201 234 20 304 239 238 219 282 341 19 274 190 208 189 189 241 210 221 222 201 213 232 204 238 137 205 213 229 171 231 256 284 233 273 273 199 255 229 150 172 57 191 184 190
318 293 64 9 337 248 235 245 279 303 312 237 252 227 191 185 200 205 180 211 207 197 235 168 226 191 198 221 224 267 268 212 227 261 258 248 241 272 297 313 312 136 184 176 184
268 280 71 325 270 228 234 234 276 254 289 280 247 232 252 170 204 194 180 173 222 202 214 239 250 137 164 207 210 192 229 234 274 236 258 259 252 45 327 340 352 33 180 180 181
308 276 40 298 237 246 236 224 43 260 225 267 278 268 257 207 201 204 213 252 168 177 203 220 247 230 209 161 232 240 215 226 226 229 240 279 290 312 303 320 306 323 284 176 183
322 302 51 277 262 217 178 247 262 257 241 260 259 240 290 233 225 217 190 115 167 202 228 165 224 219 200 174 193 229 226 259 239 244 257 248 260 271 285 269 282 314 210 171 179
294 294 130 221 335 299 336 262 257 189 266 263 275 273 255 233 217 188 195 162 183 235 39 246 258 226 239 218 201 208 226 226 244 234 239 251 261 281 283 287 277 183 195 169 181
328 52 8 321 113 330 278 301 284 263 219 251 241 246 273 252 221 209 219 156 182 142 203 228 244 228 256 26 221 198 215 215 239 251 264 279 280 286 261 291 307 5 176 178 177
329 336 334 287 283 273 230 257 275 282 273 245 249 38 279 257 290 275 248 214 203 169 199 222 245 236 220 197 210 211 220 200 224 247 270 268 273 261 332 313 284 232 199 191 180
14 274 286 268 279 266 302 316 313 312 249 280 326 310 268 313 336 303 291 297 299 239 196 196 224 210 212 201 191 218 218 219 232 221 241 246 244 331 310 309 329 230 202 205 187